CW4517 Weather Reports


time (UTC)temp
C
wind
direction
speed
KPH
gust
KPH
rain 1hr
cm
rain 24hr
cm
rain mn
cm
humidity
%
barometer
mb
20260508231840 17 248 8.0 14.5 0.00 0.00 0.00 65 1002.9
20260508231334 17 225 8.0 16.1 0.00 0.00 0.00 65 1002.9
20260508230829 17 223 9.7 20.9 0.00 0.00 0.00 63 1002.9
20260508230323 18 0 11.3 20.9 0.00 0.00 0.00 63 1002.9
20260508225816 18 219 9.7 22.5 0.00 0.00 0.00 64 1002.9
20260508225309 18 216 8.0 20.9 0.00 0.00 0.00 63 1002.9
20260508224803 18 217 9.7 17.7 0.00 0.00 0.00 62 1002.9
20260508224258 18 227 8.0 17.7 0.00 0.00 0.00 63 1002.9
20260508224012 18 242 8.0 16.1 0.00 0.00 0.00 64 1002.9
20260508223245 18 209 8.0 16.1 0.00 0.00 0.00 63 1002.9
20260508223005 18 257 8.0 16.1 0.00 0.00 0.00 63 1002.9
20260508222233 18 244 6.4 12.9 0.00 0.00 0.00 62 1002.9
20260508221729 18 221 8.0 20.9 0.00 0.00 0.00 61 1003.0
20260508221225 18 209 8.0 20.9 0.00 0.00 0.00 61 1003.0
20260508220725 18 234 8.0 16.1 0.00 0.00 0.00 61 1003.0
20260508220223 18 252 8.0 16.1 0.00 0.00 0.00 60 1002.9
20260508215723 18 231 6.4 16.1 0.00 0.00 0.00 61 1002.9
20260508215222 18 232 8.0 14.5 0.00 0.00 0.00 60 1002.9
20260508214940 18 173 8.0 14.5 0.00 0.00 0.00 60 1003.0
20260508214225 18 245 8.0 14.5 0.00 0.00 0.00 61 1003.0
20260508213720 18 164 8.0 19.3 0.00 0.00 0.00 61 1003.0
20260508213218 18 226 6.4 19.3 0.00 0.00 0.00 60 1003.2
20260508212719 18 261 6.4 14.5 0.00 0.00 0.00 61 1003.2
20260508212219 18 197 8.0 17.7 0.00 0.00 0.00 59 1003.2
20260508211936 18 238 6.4 17.7 0.00 0.00 0.00 58 1003.3
20260508211215 18 240 6.4 12.9 0.00 0.00 0.00 61 1003.3
20260508210714 18 258 6.4 12.9 0.00 0.00 0.00 59 1003.3
20260508210215 18 200 6.4 14.5 0.00 0.00 0.00 58 1003.4
20260508205715 18 229 4.8 16.1 0.00 0.00 0.00 59 1003.4
20260508205214 18 271 4.8 16.1 0.00 0.00 0.00 61 1003.4
20260508205159 18 186 6.4 11.3 0.00 0.00 0.00 61 1003.4
20260508204213 18 190 4.8 11.3 0.00 0.00 0.00 62 1003.4
20260508203700 18 196 3.2 8.0 0.00 0.00 0.00 63 1003.4
20260508203158 18 162 3.2 9.7 0.00 0.00 0.00 62 1003.8
20260508202659 17 149 4.8 14.5 0.00 0.00 0.00 63 1003.8
20260508202424 17 232 4.8 14.5 0.00 0.00 0.00 63 1003.8
20260508201658 18 223 4.8 14.5 0.00 0.00 0.00 62 1003.9
20260508201202 18 219 4.8 14.5 0.00 0.00 0.00 62 1003.9
20260508201141 18 192 4.8 11.3 0.00 0.00 0.00 63 1003.9
20260508200158 18 170 4.8 14.5 0.00 0.00 0.00 61 1004.2
20260508195700 18 223 3.2 12.9 0.00 0.00 0.00 60 1004.2
20260508195155 18 199 3.2 9.7 0.00 0.00 0.00 61 1004.2
20260508194646 18 150 4.8 12.9 0.00 0.00 0.00 59 1004.4
20260508194411 18 225 4.8 12.9 0.00 0.00 0.00 60 1004.4
20260508193637 18 253 3.2 11.3 0.00 0.00 0.00 61 1004.4
20260508193130 18 122 3.2 8.0 0.00 0.00 0.00 62 1004.4
20260508192627 18 272 3.2 8.0 0.00 0.00 0.00 59 1004.4
20260508192120 18 194 4.8 8.0 0.00 0.00 0.00 61 1004.4
20260508191613 18 184 4.8 9.7 0.00 0.00 0.00 62 1004.5
20260508191103 18 135 4.8 9.7 0.00 0.00 0.00 63 1004.5
20260508190826 18 233 3.2 8.0 0.00 0.00 0.00 64 1004.5
20260508190320 17 146 4.8 9.7 0.00 0.00 0.00 63 1004.7
20260508185814 17 107 4.8 11.3 0.00 0.00 0.00 63 1004.7
20260508185044 17 200 6.4 11.3 0.00 0.00 0.00 64 1004.7
20260508184533 18 257 4.8 12.9 0.00 0.00 0.00 61 1005.0
20260508184030 18 167 4.8 12.9 0.00 0.00 0.00 61 1005.0
20260508183524 18 96 4.8 8.0 0.00 0.00 0.00 61 1005.0
20260508183018 17 194 4.8 14.5 0.00 0.00 0.00 62 1005.0
20260508182737 17 161 4.8 14.5 0.00 0.00 0.00 62 1005.0
20260508182001 17 198 4.8 11.3 0.00 0.00 0.00 61 1005.0
20260508181500 17 117 3.2 6.4 0.00 0.00 0.00 61 1005.2
20260508180955 17 117 3.2 9.7 0.00 0.00 0.00 63 1005.2
20260508180444 17 152 6.4 9.7 0.00 0.00 0.00 60 1005.4
20260508175943 17 203 4.8 9.7 0.00 0.00 0.00 61 1005.4
20260508175659 17 227 3.2 8.0 0.00 0.00 0.00 62 1005.4
20260508174931 17 249 3.2 9.7 0.00 0.00 0.00 62 1005.5
20260508174420 17 150 4.8 9.7 0.00 0.00 0.00 60 1005.5
20260508173919 17 69 4.8 9.7 0.00 0.00 0.00 59 1005.5
20260508173413 17 130 4.8 12.9 0.00 0.00 0.00 62 1005.9
20260508173127 17 164 3.2 12.9 0.00 0.00 0.00 63 1005.9
20260508172400 17 121 3.2 6.4 0.00 0.00 0.00 63 1005.9
20260508171849 17 223 3.2 9.7 0.00 0.00 0.00 65 1006.1
20260508171347 17 250 3.2 9.7 0.00 0.00 0.00 64 1006.1
20260508170843 17 217 3.2 9.7 0.00 0.00 0.00 66 1006.1
20260508170336 16 189 4.8 9.7 0.00 0.00 0.00 66 1006.5
20260508170053 16 138 4.8 9.7 0.00 0.00 0.00 68 1006.5
20260508165324 16 109 4.8 9.7 0.00 0.00 0.00 69 1006.5
20260508165040 16 238 3.2 9.7 0.00 0.00 0.00 68 1006.6
20260508164313 16 170 3.2 9.7 0.00 0.00 0.00 70 1006.6
20260508163802 15 207 4.8 11.3 0.00 0.00 0.00 70 1006.6
20260508163513 15 217 4.8 11.3 0.00 0.00 0.00 70 1006.9
20260508162737 15 202 3.2 9.7 0.00 0.00 0.00 71 1006.9
20260508162232 15 206 3.2 9.7 0.00 0.00 0.00 70 1006.9
20260508161731 15 171 3.2 8.0 0.00 0.00 0.00 71 1007.0
20260508161232 15 138 3.2 8.0 0.00 0.00 0.00 71 1007.0
20260508160735 15 201 3.2 8.0 0.00 0.00 0.00 71 1007.0
20260508160234 15 157 3.2 8.0 0.00 0.00 0.00 70 1007.0
20260508155731 15 207 3.2 6.4 0.00 0.00 0.00 72 1007.0
20260508155457 15 139 3.2 8.0 0.00 0.00 0.00 72 1007.0
20260508154731 15 221 3.2 11.3 0.00 0.00 0.00 71 1007.1
20260508154230 15 178 3.2 11.3 0.00 0.00 0.00 71 1007.1
20260508153728 15 231 3.2 9.7 0.00 0.00 0.00 70 1007.1
20260508153224 15 209 3.2 6.4 0.00 0.00 0.00 72 1007.2
20260508152717 15 209 3.2 11.3 0.00 0.00 0.00 73 1007.2
20260508152211 15 190 3.2 11.3 0.00 0.00 0.00 72 1007.2
20260508151659 15 140 3.2 9.7 0.00 0.00 0.00 72 1007.2
20260508151159 15 211 4.8 11.3 0.00 0.00 0.00 72 1007.2
20260508150647 14 202 4.8 12.9 0.00 0.00 0.00 73 1007.2
20260508150147 15 238 4.8 12.9 0.00 0.00 0.00 71 1007.4
20260508145640 15 230 4.8 12.9 0.00 0.00 0.00 73 1007.4
20260508145133 14 190 4.8 12.9 0.00 0.00 0.00 73 1007.4
20260508144629 14 217 4.8 11.3 0.00 0.00 0.00 73 1007.3
20260508144117 14 222 3.2 11.3 0.00 0.00 0.00 75 1007.3
20260508143615 13 155 3.2 8.0 0.00 0.00 0.00 76 1007.3
20260508143111 13 223 4.8 8.0 0.00 0.00 0.00 77 1007.4
20260508142827 13 244 3.2 8.0 0.00 0.00 0.00 78 1007.4
20260508142319 13 198 3.2 9.7 0.00 0.00 0.00 79 1007.4
20260508141547 13 196 3.2 9.7 0.00 0.00 0.00 80 1007.6
20260508141312 12 144 4.8 11.3 0.00 0.00 0.00 82 1007.6
20260508140805 12 206 4.8 11.3 0.00 0.00 0.00 81 1007.6
20260508140033 12 232 3.2 8.0 0.00 0.00 0.00 83 1007.6
20260508135527 12 167 3.2 11.3 0.00 0.00 0.00 84 1007.6
20260508135022 12 226 3.2 11.3 0.00 0.00 0.00 85 1007.6
20260508134516 11 225 4.8 11.3 0.00 0.00 0.00 85 1007.6
20260508134006 11 188 4.8 12.9 0.00 0.00 0.00 85 1007.6
20260508133504 11 200 4.8 12.9 0.00 0.00 0.00 85 1007.6
20260508132958 11 232 3.2 8.0 0.00 0.00 0.00 85 1007.5
20260508132450 11 227 3.2 8.0 0.00 0.00 0.00 86 1007.5
20260508131945 11 148 3.2 4.8 0.00 0.00 0.00 86 1007.6
20260508131435 11 123 3.2 6.4 0.00 0.00 0.00 87 1007.6
20260508130934 10 130 3.2 6.4 0.00 0.00 0.00 87 1007.6
20260508130656 10 162 1.6 6.4 0.00 0.00 0.00 87 1007.6
20260508125933 10 162 1.6 6.4 0.00 0.00 0.00 88 1007.6
20260508125432 10 107 1.6 4.8 0.00 0.00 0.00 88 1007.6
20260508124931 10 154 1.6 4.8 0.00 0.00 0.00 87 1007.6
20260508124429 10 128 1.6 4.8 0.00 0.00 0.00 87 1007.6
20260508123929 9 120 1.6 4.8 0.00 0.00 0.00 88 1007.6
20260508123429 9 173 0.0 4.8 0.00 0.00 0.00 88 1007.5
20260508122929 9 157 1.6 6.4 0.00 0.00 0.00 87 1007.5
20260508122430 9 149 3.2 6.4 0.00 0.00 0.00 87 1007.5
20260508121926 9 145 1.6 6.4 0.00 0.00 0.00 87 1007.6
20260508121427 9 147 1.6 9.7 0.00 0.00 0.00 87 1007.6
20260508120927 9 182 3.2 11.3 0.00 0.00 0.00 87 1007.6
20260508120424 9 214 3.2 11.3 0.00 0.00 0.00 87 1007.4
20260508115928 8 200 3.2 9.7 0.00 0.00 0.00 87 1007.4
20260508115648 8 216 3.2 8.0 0.00 0.00 0.00 87 1007.4
20260508114922 8 174 3.2 8.0 0.00 0.00 0.00 87 1007.5
20260508114409 8 200 1.6 6.4 0.00 0.00 0.00 87 1007.5
20260508113857 8 204 0.0 4.8 0.00 0.00 0.00 87 1007.5
20260508113345 8 173 1.6 4.8 0.00 0.00 0.00 86 1007.2
20260508112835 8 173 1.6 4.8 0.00 0.00 0.00 87 1007.2
20260508112321 8 173 1.6 4.8 0.00 0.00 0.00 86 1007.2
20260508111809 8 185 1.6 4.8 0.00 0.00 0.00 86 1007.1
20260508111258 8 204 0.0 3.2 0.00 0.00 0.00 86 1007.1
20260508110745 8 204 0.0 3.2 0.00 0.00 0.00 85 1007.1
20260508110511 8 204 0.0 0.0 0.00 0.00 0.00 85 1007.2
20260508105738 8 204 0.0 3.2 0.00 0.00 0.00 85 1007.2
20260508105231 8 204 1.6 3.2 0.00 0.00 0.00 85 1007.2
20260508104726 8 204 1.6 4.8 0.00 0.00 0.00 85 1007.2
20260508104212 8 245 1.6 4.8 0.00 0.00 0.00 85 1007.2
20260508103713 8 245 0.0 3.2 0.00 0.00 0.00 85 1007.2
20260508103208 8 245 0.0 1.6 0.00 0.00 0.00 85 1007.3
20260508102701 8 245 0.0 1.6 0.00 0.00 0.00 84 1007.3
20260508102157 8 245 0.0 0.0 0.00 0.00 0.00 84 1007.3
20260508101642 8 245 0.0 0.0 0.00 0.00 0.00 84 1007.5
20260508101413 8 245 0.0 0.0 0.00 0.00 0.00 84 1007.5
20260508101118 8 245 0.0 0.0 0.00 0.00 0.00 83 1007.5
20260508100131 8 245 0.0 0.0 0.00 0.00 0.00 83 1007.2
20260508095626 8 245 0.0 1.6 0.00 0.00 0.00 83 1007.2
20260508095116 8 245 0.0 1.6 0.00 0.00 0.00 83 1007.2
20260508094614 8 245 0.0 1.6 0.00 0.00 0.00 83 1007.6
20260508094101 8 245 1.6 3.2 0.00 0.00 0.00 83 1007.6
20260508093600 8 245 1.6 3.2 0.00 0.00 0.00 83 1007.6
20260508093057 8 223 1.6 3.2 0.00 0.00 0.00 83 1007.5
20260508092545 8 223 0.0 3.2 0.00 0.00 0.00 83 1007.5
20260508092044 8 223 1.6 4.8 0.00 0.00 0.00 83 1007.5
20260508091534 8 223 3.2 4.8 0.00 0.00 0.00 83 1007.5
20260508091031 8 223 3.2 4.8 0.00 0.00 0.00 83 1007.5
20260508090525 8 223 1.6 3.2 0.00 0.00 0.00 83 1007.5
20260508090019 8 223 0.0 3.2 0.00 0.00 0.00 83 1007.6
20260508085734 8 223 1.6 3.2 0.00 0.00 0.00 83 1007.6
20260508084959 8 223 1.6 3.2 0.00 0.00 0.00 82 1007.6
20260508084502 8 223 1.6 4.8 0.00 0.00 0.00 82 1007.6
20260508083956 8 223 1.6 6.4 0.00 0.00 0.00 82 1007.6
20260508083445 8 226 3.2 8.0 0.00 0.00 0.00 81 1007.6
20260508082944 9 225 4.8 8.0 0.00 0.00 0.00 81 1007.6
20260508082437 9 204 4.8 9.7 0.00 0.00 0.00 81 1007.6
20260508081931 9 236 6.4 9.7 0.00 0.00 0.00 80 1007.6
20260508081418 9 229 4.8 9.7 0.00 0.00 0.00 80 1007.6
20260508080915 9 229 4.8 9.7 0.00 0.00 0.00 80 1007.6
20260508080413 10 215 4.8 9.7 0.00 0.00 0.00 80 1007.7
20260508075912 10 250 4.8 9.7 0.00 0.00 0.00 80 1007.7
20260508075634 9 228 4.8 12.9 0.00 0.00 0.00 81 1007.7
20260508074911 9 240 4.8 12.9 0.00 0.00 0.00 81 1007.8
20260508074412 9 234 4.8 8.0 0.00 0.00 0.00 82 1007.8
20260508073912 8 207 4.8 8.0 0.00 0.00 0.00 82 1007.8
20260508073412 8 233 4.8 9.7 0.00 0.00 0.00 82 1008.0
20260508072915 8 220 4.8 9.7 0.00 0.00 0.00 82 1008.0
20260508072416 8 217 4.8 8.0 0.00 0.00 0.00 82 1008.0
20260508071909 8 211 4.8 8.0 0.00 0.00 0.00 83 1008.1
20260508071356 8 231 4.8 8.0 0.00 0.00 0.00 83 1008.1
20260508070847 8 216 4.8 6.4 0.00 0.00 0.00 83 1008.1
20260508070340 8 227 4.8 6.4 0.00 0.00 0.00 83 1008.1
20260508070050 8 227 3.2 6.4 0.00 0.00 0.00 83 1008.1
20260508065319 8 223 1.6 6.4 0.00 0.00 0.00 83 1008.1
20260508064821 8 238 1.6 8.0 0.00 0.00 0.00 82 1008.1
20260508064315 8 237 1.6 8.0 0.00 0.00 0.00 82 1008.1
20260508063810 8 245 3.2 6.4 0.00 0.00 0.00 82 1008.1
20260508063302 8 245 3.2 6.4 0.00 0.00 0.00 82 1008.2
20260508062756 8 240 3.2 8.0 0.00 0.00 0.00 82 1008.2
20260508062513 8 238 3.2 8.0 0.00 0.00 0.00 82 1008.2
20260508061741 8 213 3.2 9.7 0.00 0.00 0.00 82 1008.1
20260508061238 8 227 4.8 9.7 0.00 0.00 0.00 82 1008.1
20260508060732 8 233 4.8 9.7 0.00 0.00 0.00 82 1008.1
20260508060445 8 227 3.2 6.4 0.00 0.00 0.00 82 1008.2
20260508055721 8 220 4.8 9.7 0.00 0.00 0.00 81 1008.2
20260508055654 8 198 4.8 9.7 0.00 0.00 0.00 82 1008.2
20260508054708 8 230 4.8 6.4 0.00 0.00 0.00 81 1008.1
20260508054202 8 215 4.8 6.4 0.00 0.00 0.00 81 1008.1
20260508053656 8 216 4.8 8.0 0.00 0.00 0.00 81 1008.1
20260508053151 8 232 4.8 9.7 0.00 0.00 0.00 81 1008.1
20260508052645 8 255 3.2 9.7 0.00 0.00 0.00 81 1008.1
20260508052140 8 240 3.2 8.0 0.00 0.00 0.00 81 1008.1
20260508051629 8 223 1.6 4.8 0.00 0.00 0.00 81 1008.1
20260508051348 8 236 1.6 4.8 0.00 0.00 0.00 81 1008.1
20260508050619 8 238 3.2 6.4 0.00 0.00 0.00 81 1008.1
20260508050116 8 234 3.2 6.4 0.00 0.00 0.00 80 1007.8
20260508045611 8 289 3.2 6.4 0.00 0.00 0.00 80 1007.8
20260508045330 9 245 4.8 12.9 0.00 0.00 0.00 80 1007.8
20260508044559 9 223 6.4 12.9 0.00 0.00 0.00 80 1007.7
20260508044049 9 222 6.4 11.3 0.00 0.00 0.00 79 1007.7
20260508043547 9 223 6.4 11.3 0.00 0.00 0.00 79 1007.7
20260508043041 9 222 6.4 11.3 0.00 0.00 0.00 79 1007.6
20260508042800 9 221 6.4 11.3 0.00 0.00 0.00 78 1007.6
20260508042030 9 245 6.4 12.9 0.00 0.00 0.00 78 1007.6
20260508041523 10 229 6.4 12.9 0.00 0.00 0.00 78 1007.6
20260508041244 10 228 6.4 11.3 0.00 0.00 0.00 77 1007.6
20260508040729 10 217 4.8 11.3 0.00 0.00 0.00 77 1007.6
20260508040227 10 215 4.8 11.3 0.00 0.00 0.00 77 1007.6
20260508035457 10 212 4.8 11.3 0.00 0.00 0.00 77 1007.6
20260508034947 10 223 4.8 11.3 0.00 0.00 0.00 76 1007.6
20260508034446 10 224 4.8 12.9 0.00 0.00 0.00 76 1007.6
20260508034158 10 213 4.8 12.9 0.00 0.00 0.00 76 1007.6
20260508033434 10 215 6.4 9.7 0.00 0.00 0.00 76 1007.6
20260508032928 10 216 6.4 11.3 0.00 0.00 0.00 76 1007.6
20260508032421 10 225 6.4 12.9 0.00 0.00 0.00 75 1007.6
20260508031915 10 210 6.4 12.9 0.00 0.00 0.00 75 1007.4
20260508031405 10 227 6.4 12.9 0.00 0.00 0.00 74 1007.4
20260508030905 10 225 6.4 14.5 0.00 0.00 0.00 74 1007.4
20260508030404 10 232 4.8 14.5 0.00 0.00 0.00 73 1007.4
20260508025904 10 239 3.2 8.0 0.00 0.00 0.00 72 1007.4
20260508025404 11 210 3.2 4.8 0.00 0.00 0.00 71 1007.4
20260508024905 11 198 3.2 6.4 0.00 0.00 0.00 70 1007.4
20260508024405 11 207 3.2 6.4 0.00 0.00 0.00 70 1007.4
20260508024130 11 205 3.2 6.4 0.00 0.00 0.00 70 1007.4
20260508023405 11 192 3.2 6.4 0.00 0.00 0.00 70 1007.2
20260508022905 10 196 3.2 6.4 0.00 0.00 0.00 71 1007.2
20260508022407 10 226 1.6 6.4 0.00 0.00 0.00 71 1007.2
20260508021907 10 223 0.0 6.4 0.00 0.00 0.00 72 1007.2
20260508021401 10 177 0.0 0.0 0.00 0.00 0.00 72 1007.2
20260508020851 10 186 0.0 0.0 0.00 0.00 0.00 72 1007.2
20260508020334 10 186 0.0 0.0 0.00 0.00 0.00 73 1007.1
20260508015823 10 169 0.0 0.0 0.00 0.00 0.00 73 1007.1
20260508015312 10 180 0.0 0.0 0.00 0.00 0.00 73 1007.1
20260508014758 10 153 0.0 0.0 0.00 0.00 0.00 73 1006.8
20260508014514 10 85 0.0 0.0 0.00 0.00 0.00 73 1006.8
20260508013742 10 85 0.0 0.0 0.00 0.00 0.00 73 1006.8
20260508013717 10 85 0.0 0.0 0.00 0.00 0.00 73 1006.6
20260508012736 10 85 0.0 0.0 0.00 0.00 0.00 73 1006.6
20260508012228 11 85 0.0 0.0 0.00 0.00 0.00 73 1006.6
20260508011723 11 27 0.0 0.0 0.00 0.00 0.00 73 1006.6
20260508011213 11 27 0.0 0.0 0.00 0.00 0.00 73 1006.6
20260508010712 11 24 0.0 0.0 0.00 0.00 0.00 72 1006.6
20260508010201 11 13 0.0 0.0 0.00 0.00 0.00 72 1006.6
20260508005659 11 13 0.0 0.0 0.00 0.00 0.00 71 1006.6
20260508005647 12 13 0.0 0.0 0.00 0.00 0.00 71 1006.6
20260508004912 12 13 0.0 0.0 0.00 0.00 0.00 70 1006.5
20260508004142 12 13 0.0 0.0 0.00 0.00 0.00 69 1006.5
20260508003857 12 13 0.0 0.0 0.00 0.00 0.00 69 1006.5
20260508003355 13 13 0.0 0.0 0.00 0.00 0.00 68 1006.5
20260508002623 13 13 0.0 0.0 0.00 0.00 0.00 68 1006.5
20260508002341 13 13 0.0 0.0 0.00 0.00 0.00 67 1006.5
20260508001610 13 13 0.0 0.0 0.00 0.00 0.00 67 1006.5
20260508001101 12 13 0.0 0.0 0.00 0.00 0.00 68 1006.5
20260508000558 12 13 0.0 1.6 0.00 0.00 0.00 68 1006.5
20260508000053 12 13 0.0 3.2 0.00 0.00 0.00 68 1006.5
20260507235546 12 13 1.6 6.4 0.00 0.00 0.00 68 1006.5
20260507235041 12 5 1.6 6.4 0.00 0.00 0.00 68 1006.5
20260507234534 12 342 3.2 8.0 0.00 0.00 0.00 67 1006.5
20260507234251 12 282 3.2 8.0 0.00 0.00 0.00 67 1006.5
20260507233522 12 5 3.2 9.7 0.00 0.00 0.00 66 1006.5
20260507233016 12 54 4.8 11.3 0.00 0.00 0.00 65 1006.5
20260507232510 13 34 6.4 12.9 0.00 0.00 0.00 63 1006.5
20260507232004 13 36 6.4 12.9 0.00 0.00 0.00 62 1006.5